Regional Weather Roundup
Issued by NWS Charleston, WV

Home | Current Version | Previous Version | Graphics & Text | Print | Product List | Glossary On
Versions: 1 2 3 4 5 6 7 8 9 10 11 12 13 14 15 16 17 18 19 20 21 22 23 24 25 26 27
000
ASUS41 KRLX 231210
RWRRLX
West Virginia Regional Weather Roundup
National Weather Service Charleston WV
800 AM EDT MON APR 23 2018

Note: "fair" indicates few or no clouds below 12,000 feet with no
significant weather and/or obstructions to visibility.

WVZ003-231300-
Northern Panhandle of West Virginia

CITY           SKY/WX    TMP DP  RH WIND       PRES   REMARKS
WHEELING       FAIR      53  40  61 E12       30.28R
$$

WVZ009-231300-
Northwest West Virginia

CITY           SKY/WX    TMP DP  RH WIND       PRES   REMARKS
PARKERSBURG    FAIR      54  40  59 E7        30.26R
$$

WVZ006-231300-
Western West Virginia

CITY           SKY/WX    TMP DP  RH WIND       PRES   REMARKS
HUNTINGTON     FAIR      57  43  59 E7        30.13R
$$

WVZ015-231300-
West Central West Virginia

CITY           SKY/WX    TMP DP  RH WIND       PRES   REMARKS
CHARLESTON     PTSUNNY   60  44  55 SE13G22   30.17S
$$

WVZ022-031-231300-
North Central West Virginia

CITY           SKY/WX    TMP DP  RH WIND       PRES   REMARKS
CLARKSBURG     FAIR      56  40  55 E5        30.27R
MORGANTOWN     FAIR      55  39  54 SE8       30.30R
$$

WVZ025-035-042-045-231300-
Southern West Virginia

CITY           SKY/WX    TMP DP  RH WIND       PRES   REMARKS
BECKLEY        FAIR      52  41  66 SE15G32   30.23R
LOGAN          PTSUNNY   59  45  58 SE14      30.17R
BLUEFIELD      CLOUDY    50  41  71 SE13G24   30.24R
LEWISBURG      FAIR      51  36  57 SE5       30.32R
$$

WVZ047-231300-
Northern Mountains of West Virginia

CITY           SKY/WX    TMP DP  RH WIND       PRES   REMARKS
ELKINS         FAIR      52  39  61 CALM      30.28S
$$

WVZ052-231300-
Eastern Panhandle of West Virginia

CITY           SKY/WX    TMP DP  RH WIND       PRES   REMARKS
MARTINSBURG    FAIR      48  37  65 CALM      30.40R
PETERSBURG     FAIR      41  38  92 CALM      30.37S
$$




USA.gov is the U.S. government's official web portal to all federal, state and local government web resources and services.